Location: Artiguedieu
(43.5000°N, 0.5454°E)
Time: 18:24:50
(UTC+00:00)

Transit 2A Rocket - Pass Details

Date: 02 August 2021
Orbit: 586 x 916 km, 66.7° (Epoch: 21 September)

Event Time Altitude Azimuth Distance (km) Brightness Sun altitude
Rises 14:48:17 0° 242° (WSW) 2,860 8.7 46.8°
Reaches altitude 10° 14:50:45 10° 255° (WSW) 1,994 8.2 46.4°
Maximum altitude 14:54:36 27° 314° (NW) 1,252 6.7 45.8°
Drops below altitude 10° 14:58:43 10° 13° (NNE) 2,153 7.2 45.1°
Sets 15:01:29 0° 25° (NNE) 3,137 7.9 44.6°
